QPF
0.02 0.02 0.05 0.10 0.14 0.15 0.14 0.13 0.06 0.05 0.06 0.05 0.05 0.07 0.11 0.11 0.11 0.09 0.14 0.14 0.07 0.12 0.11 0.07 0.11 0.09 0.08 0.10 0.14 0.14 0.09 0.06 0.05 0.03 0.03 0.02 0.01 0.02 0.02 0.02 0.01 0.02 0.02 0.02 0.02 0.02 0.03 0.04 0.04
0.03 0.02 0.06 0.11 0.16 0.16 0.15 0.13 0.11 0.10 0.07 0.03 0.04 0.06 0.08 0.06 0.03 0.05 0.12 0.13 0.09 0.12 0.12 0.06 0.09 0.08 0.08 0.12 0.12 0.11 0.08 0.04 0.02 0.02 0.02 0.01 0.01 0.01 0.01 0.01 0.01 0.01 0.01 0.01 0.00 0.01 0.01 0.02 0.03
0.03 0.04 0.07 0.11 0.15 0.16 0.15 0.12 0.11 0.07 0.04 0.03 0.04 0.05 0.05 0.07 0.05 0.08 0.12 0.09 0.07 0.08 0.08 0.06 0.12 0.09 0.07 0.07 0.06 0.06 0.05 0.02 0.02 0.01 0.01 0.01 0.00 0.00 0.01 0.01 0.01 0.01 0.00 0.00 0.00 0.00 0.01 0.01 0.01
0.03 0.04 0.07 0.11 0.13 0.10 0.09 0.09 0.08 0.05 0.06 0.04 0.03 0.04 0.03 0.06 0.07 0.09 0.07 0.03 0.06 0.06 0.04 0.02 0.05 0.07 0.06 0.05 0.03 0.02 0.02 0.02 0.02 0.01 0.00 0.00 0.00 0.00 0.00 0.00 0.00 0.00 0.00 0.00 0.00 0.01 0.01 0.01 0.01
0.03 0.07 0.09 0.12 0.09 0.07 0.07 0.06 0.05 0.06 0.06 0.04 0.05 0.05 0.05 0.09 0.09 0.07 0.05 0.02 0.03 0.03 0.02 0.01 0.01 0.03 0.05 0.04 0.02 0.01 0.01 0.01 0.02 0.01 0.01 0.00 0.00 0.00 0.00 0.00 0.00 0.00 0.00 0.00 0.01 0.01 0.01 0.01 0.01
0.06 0.08 0.11 0.12 0.08 0.06 0.07 0.04 0.03 0.04 0.03 0.03 0.05 0.04 0.07 0.11 0.11 0.08 0.04 0.03 0.03 0.02 0.02 0.01 0.02 0.02 0.03 0.02 0.02 0.01 0.01 0.01 0.01 0.01 0.01 0.00 0.00 0.00 0.00 0.00 0.00 0.00 0.00 0.00 0.00 0.00 0.00 0.00 0.00
0.09 0.10 0.11 0.12 0.10 0.09 0.08 0.06 0.04 0.03 0.02 0.02 0.02 0.04 0.06 0.08 0.06 0.04 0.04 0.03 0.03 0.02 0.03 0.03 0.02 0.01 0.02 0.02 0.04 0.02 0.01 0.01 0.01 0.01 0.01 0.01 0.01 0.00 0.00 0.00 0.00 0.00 0.00 0.00 0.00 0.00 0.00 0.00 0.00
0.05 0.08 0.11 0.12 0.14 0.12 0.07 0.06 0.05 0.03 0.02 0.01 0.02 0.04 0.05 0.05 0.03 0.02 0.02 0.02 0.01 0.01 0.02 0.02 0.02 0.01 0.01 0.01 0.02 0.03 0.02 0.01 0.01 0.01 0.01 0.01 0.01 0.01 0.00 0.00 0.00 0.00 0.00 0.00 0.00 0.00 0.00 0.00 0.00
0.03 0.11 0.18 0.16 0.14 0.11 0.07 0.07 0.06 0.03 0.03 0.02 0.02 0.03 0.02 0.02 0.01 0.01 0.01 0.02 0.02 0.01 0.01 0.01 0.00 0.01 0.01 0.00 0.00 0.01 0.01 0.01 0.01 0.01 0.01 0.01 0.01 0.01 0.00 0.00 0.00 0.00 0.00 0.00 0.00 0.00 0.00 0.00 0.00
0.05 0.14 0.17 0.10 0.06 0.08 0.09 0.09 0.09 0.05 0.04 0.03 0.02 0.02 0.01 0.01 0.01 0.02 0.03 0.03 0.03 0.01 0.01 0.00 0.00 0.00 0.00 0.00 0.00 0.00 0.00 0.00 0.00 0.00 0.01 0.01 0.01 0.01 0.01 0.00 0.00 0.00 0.00 0.00 0.00 0.00 0.00 0.00 0.01
0.04 0.11 0.11 0.08 0.04 0.06 0.06 0.07 0.07 0.06 0.06 0.05 0.03 0.02 0.02 0.01 0.02 0.02 0.03 0.03 0.02 0.01 0.00 0.00 0.00 0.00 0.00 0.00 0.00 0.00 0.00 0.00 0.00 0.00 0.00 0.01 0.02 0.02 0.01 0.01 0.00 0.00 0.00 0.00 0.00 0.00 0.00 0.00 0.01
0.05 0.09 0.08 0.06 0.03 0.06 0.06 0.05 0.04 0.05 0.05 0.05 0.05 0.03 0.02 0.02 0.03 0.03 0.02 0.01 0.01 0.00 0.00 0.00 0.00 0.00 0.00 0.00 0.00 0.00 0.00 0.00 0.00 0.00 0.00 0.01 0.02 0.02 0.02 0.01 0.00 0.00 0.00 0.00 0.00 0.01 0.01 0.01 0.01
0.08 0.09 0.07 0.04 0.03 0.04 0.04 0.03 0.03 0.04 0.03 0.03 0.04 0.04 0.03 0.04 0.04 0.03 0.01 0.00 0.00 0.00 0.00 0.00 0.00 0.00 0.00 0.00 0.00 0.00 0.00 0.00 0.00 0.00 0.00 0.01 0.01 0.02 0.01 0.01 0.00 0.00 0.00 0.00 0.00 0.01 0.01 0.01 0.01
0.08 0.09 0.09 0.07 0.04 0.04 0.04 0.04 0.02 0.03 0.02 0.02 0.03 0.05 0.04 0.04 0.03 0.01 0.00 0.00 0.00 0.00 0.00 0.00 0.00 0.00 0.00 0.00 0.00 0.00 0.00 0.00 0.00 0.00 0.00 0.00 0.00 0.00 0.01 0.00 0.00 0.00 0.00 0.00 0.00 0.00 0.01 0.01 0.02
0.06 0.10 0.12 0.11 0.07 0.05 0.04 0.07 0.04 0.02 0.01 0.01 0.02 0.03 0.02 0.02 0.01 0.01 0.00 0.00 0.00 0.00 0.00 0.00 0.00 0.00 0.00 0.00 0.00 0.00 0.00 0.00 0.00 0.00 0.00 0.00 0.00 0.00 0.00 0.00 0.00 0.00 0.00 0.00 0.00 0.00 0.01 0.01 0.01
0.10 0.16 0.14 0.11 0.11 0.07 0.06 0.09 0.06 0.02 0.01 0.01 0.01 0.01 0.01 0.01 0.01 0.00 0.00 0.00 0.00 0.00 0.00 0.00 0.00 0.00 0.00 0.00 0.00 0.00 0.00 0.00 0.00 0.00 0.00 0.00 0.00 0.00 0.00 0.00 0.00 0.00 0.00 0.00 0.00 0.00 0.02 0.02 0.02
0.16 0.19 0.15 0.09 0.10 0.10 0.10 0.08 0.05 0.03 0.02 0.03 0.02 0.02 0.02 0.01 0.00 0.00 0.00 0.00 0.00 0.00 0.00 0.00 0.00 0.00 0.00 0.00 0.00 0.00 0.00 0.00 0.00 0.00 0.00 0.00 0.00 0.00 0.00 0.00 0.00 0.00 0.00 0.01 0.00 0.01 0.02 0.04 0.04
0.16 0.17 0.15 0.08 0.06 0.10 0.12 0.10 0.05 0.03 0.03 0.05 0.04 0.02 0.02 0.01 0.01 0.00 0.00 0.00 0.00 0.00 0.00 0.00 0.00 0.00 0.00 0.00 0.00 0.00 0.00 0.00 0.00 0.00 0.00 0.00 0.00 0.00 0.00 0.00 0.00 0.00 0.01 0.02 0.02 0.01 0.01 0.03 0.03
0.09 0.11 0.14 0.08 0.04 0.08 0.10 0.09 0.06 0.03 0.03 0.06 0.07 0.04 0.03 0.01 0.01 0.00 0.01 0.01 0.00 0.00 0.00 0.00 0.00 0.00 0.00 0.00 0.00 0.00 0.00 0.00 0.00 0.00 0.00 0.00 0.00 0.00 0.00 0.00 0.00 0.00 0.01 0.02 0.02 0.02 0.02 0.02 0.01
0.05 0.11 0.12 0.10 0.05 0.06 0.07 0.07 0.04 0.03 0.03 0.04 0.06 0.05 0.04 0.02 0.01 0.00 0.00 0.00 0.00 0.00 0.00 0.00 0.00 0.00 0.00 0.00 0.00 0.00 0.00 0.00 0.00 0.00 0.00 0.00 0.00 0.00 0.00 0.00 0.00 0.00 0.01 0.01 0.01 0.01 0.02 0.02 0.01
0.08 0.09 0.08 0.08 0.06 0.07 0.07 0.09 0.07 0.03 0.02 0.03 0.04 0.04 0.04 0.02 0.01 0.00 0.00 0.00 0.00 0.00 0.00 0.00 0.00 0.00 0.00 0.00 0.00 0.00 0.00 0.00 0.00 0.00 0.00 0.00 0.00 0.00 0.00 0.00 0.00 0.00 0.01 0.01 0.01 0.00 0.02 0.02 0.01
0.08 0.04 0.04 0.05 0.06 0.09 0.08 0.10 0.07 0.04 0.03 0.03 0.02 0.01 0.03 0.02 0.01 0.01 0.00 0.00 0.00 0.00 0.00 0.00 0.00 0.00 0.00 0.00 0.00 0.00 0.00 0.00 0.00 0.00 0.00 0.00 0.00 0.00 0.00 0.00 0.00 0.00 0.00 0.01 0.01 0.00 0.01 0.01 0.01
0.02 0.02 0.03 0.04 0.06 0.07 0.04 0.06 0.05 0.04 0.04 0.02 0.01 0.01 0.01 0.01 0.01 0.01 0.01 0.00 0.00 0.00 0.00 0.00 0.00 0.00 0.00 0.00 0.00 0.00 0.00 0.00 0.00 0.00 0.00 0.00 0.00 0.00 0.00 0.00 0.00 0.00 0.01 0.01 0.01 0.00 0.01 0.01 0.01
0.01 0.01 0.02 0.04 0.07 0.09 0.05 0.04 0.04 0.02 0.03 0.02 0.01 0.01 0.00 0.00 0.01 0.01 0.01 0.00 0.00 0.00 0.00 0.00 0.00 0.00 0.00 0.00 0.00 0.00 0.00 0.00 0.00 0.00 0.00 0.00 0.00 0.00 0.00 0.00 0.00 0.00 0.00 0.01 0.01 0.01 0.00 0.00 0.01
0.01 0.03 0.08 0.09 0.11 0.08 0.03 0.04 0.03 0.01 0.02 0.01 0.01 0.01 0.01 0.01 0.01 0.01 0.00 0.00 0.00 0.00 0.00 0.00 0.00 0.00 0.00 0.00 0.00 0.00 0.00 0.00 0.00 0.00 0.00 0.00 0.00 0.00 0.00 0.00 0.00 0.00 0.00 0.00 0.00 0.01 0.01 0.00 0.00
0.01 0.03 0.10 0.11 0.10 0.05 0.02 0.03 0.02 0.01 0.01 0.01 0.00 0.01 0.01 0.01 0.01 0.01 0.00 0.00 0.00 0.00 0.00 0.00 0.00 0.00 0.00 0.00 0.00 0.00 0.00 0.00 0.00 0.00 0.00 0.01 0.01 0.00 0.00 0.00 0.00 0.00 0.00 0.00 0.00 0.00 0.00 0.00 0.00
0.01 0.02 0.03 0.05 0.04 0.04 0.03 0.01 0.01 0.01 0.01 0.01 0.01 0.01 0.01 0.01 0.00 0.00 0.00 0.00 0.00 0.00 0.00 0.00 0.00 0.00 0.00 0.00 0.00 0.00 0.00 0.00 0.00 0.00 0.00 0.00 0.01 0.01 0.01 0.00 0.00 0.00 0.00 0.00 0.00 0.00 0.00 0.00 0.00
0.01 0.01 0.01 0.02 0.04 0.05 0.03 0.01 0.01 0.01 0.01 0.00 0.00 0.00 0.00 0.00 0.00 0.00 0.00 0.00 0.00 0.00 0.00 0.00 0.00 0.00 0.00 0.01 0.00 0.00 0.00 0.00 0.00 0.00 0.00 0.00 0.00 0.01 0.01 0.00 0.00 0.00 0.00 0.00 0.00 0.00 0.00 0.00 0.00
0.00 0.00 0.00 0.01 0.02 0.03 0.03 0.02 0.00 0.00 0.00 0.00 0.00 0.00 0.00 0.00 0.00 0.00 0.00 0.00 0.00 0.00 0.00 0.00 0.00 0.00 0.01 0.01 0.01 0.01 0.01 0.01 0.00 0.00 0.00 0.00 0.01 0.01 0.01 0.01 0.01 0.00 0.00 0.00 0.00 0.00 0.00 0.00 0.00
0.00 0.00 0.00 0.02 0.02 0.01 0.01 0.01 0.00 0.00 0.00 0.00 0.00 0.00 0.00 0.00 0.00 0.00 0.00 0.00 0.00 0.00 0.00 0.00 0.00 0.00 0.01 0.01 0.02 0.02 0.01 0.01 0.00 0.00 0.00 0.01 0.01 0.01 0.01 0.01 0.01 0.00 0.00 0.00 0.00 0.00 0.00 0.00 0.00
MSLP
1007.88 1008.49 1009.32 1010.25 1011.14 1011.87 1012.37 1012.62 1012.66 1012.57 1012.45 1012.40 1012.48 1012.71 1013.07 1013.48 1013.86 1014.13 1014.23 1014.15 1013.92 1013.62 1013.33 1013.12 1013.05 1013.13 1013.35 1013.64 1013.94 1014.20 1014.36 1014.43 1014.41 1014.34 1014.28 1014.24 1014.24 1014.27 1014.33 1014.37 1014.38 1014.35 1014.28 1014.19 1014.08 1013.99 1013.90 1013.83 1013.76
1008.31 1009.05 1009.93 1010.83 1011.60 1012.17 1012.48 1012.55 1012.45 1012.28 1012.14 1012.12 1012.27 1012.59 1013.02 1013.49 1013.89 1014.16 1014.25 1014.17 1013.96 1013.69 1013.46 1013.33 1013.34 1013.50 1013.76 1014.08 1014.38 1014.61 1014.75 1014.79 1014.76 1014.70 1014.63 1014.58 1014.55 1014.55 1014.56 1014.54 1014.50 1014.43 1014.33 1014.23 1014.13 1014.04 1013.97 1013.89 1013.80
1008.86 1009.69 1010.58 1011.39 1012.01 1012.39 1012.50 1012.39 1012.17 1011.93 1011.80 1011.84 1012.07 1012.48 1012.98 1013.49 1013.91 1014.16 1014.24 1014.15 1013.95 1013.74 1013.57 1013.52 1013.62 1013.84 1014.15 1014.47 1014.76 1014.98 1015.09 1015.11 1015.07 1015.01 1014.94 1014.89 1014.86 1014.83 1014.79 1014.73 1014.64 1014.52 1014.40 1014.29 1014.20 1014.12 1014.05 1013.97 1013.86
1009.50 1010.38 1011.22 1011.92 1012.37 1012.55 1012.47 1012.22 1011.90 1011.65 1011.55 1011.66 1011.98 1012.47 1013.03 1013.56 1013.96 1014.19 1014.23 1014.12 1013.93 1013.75 1013.66 1013.69 1013.87 1014.15 1014.49 1014.82 1015.09 1015.27 1015.35 1015.35 1015.30 1015.24 1015.19 1015.15 1015.12 1015.08 1015.02 1014.92 1014.80 1014.65 1014.52 1014.40 1014.31 1014.24 1014.17 1014.08 1013.96
1010.14 1011.02 1011.79 1012.36 1012.65 1012.66 1012.44 1012.09 1011.73 1011.50 1011.47 1011.67 1012.09 1012.65 1013.23 1013.75 1014.11 1014.27 1014.25 1014.10 1013.91 1013.77 1013.73 1013.83 1014.08 1014.41 1014.77 1015.10 1015.34 1015.47 1015.52 1015.49 1015.44 1015.38 1015.35 1015.34 1015.33 1015.30 1015.23 1015.11 1014.97 1014.81 1014.66 1014.54 1014.45 1014.38 1014.32 1014.22 1014.08
1010.72 1011.55 1012.24 1012.68 1012.83 1012.72 1012.41 1012.03 1011.69 1011.52 1011.59 1011.90 1012.41 1013.01 1013.61 1014.09 1014.37 1014.44 1014.34 1014.13 1013.92 1013.79 1013.79 1013.96 1014.26 1014.63 1015.00 1015.30 1015.50 1015.59 1015.59 1015.54 1015.47 1015.43 1015.43 1015.45 1015.47 1015.46 1015.40 1015.28 1015.12 1014.95 1014.79 1014.66 1014.57 1014.50 1014.44 1014.34 1014.19
1011.15 1011.92 1012.51 1012.84 1012.90 1012.72 1012.39 1012.02 1011.76 1011.70 1011.88 1012.30 1012.89 1013.53 1014.11 1014.52 1014.71 1014.68 1014.48 1014.21 1013.96 1013.83 1013.86 1014.06 1014.40 1014.79 1015.16 1015.44 1015.60 1015.64 1015.60 1015.51 1015.44 1015.41 1015.44 1015.49 1015.54 1015.56 1015.52 1015.41 1015.24 1015.06 1014.88 1014.74 1014.63 1014.55 1014.48 1014.37 1014.22
1011.41 1012.10 1012.60 1012.86 1012.86 1012.66 1012.35 1012.06 1011.89 1011.95 1012.26 1012.78 1013.43 1014.09 1014.64 1014.99 1015.09 1014.95 1014.66 1014.32 1014.03 1013.89 1013.93 1014.16 1014.51 1014.91 1015.27 1015.52 1015.64 1015.64 1015.56 1015.45 1015.37 1015.36 1015.41 1015.49 1015.58 1015.62 1015.60 1015.49 1015.31 1015.10 1014.90 1014.73 1014.60 1014.50 1014.42 1014.31 1014.17
1011.52 1012.13 1012.57 1012.78 1012.77 1012.58 1012.33 1012.12 1012.05 1012.22 1012.63 1013.23 1013.92 1014.59 1015.11 1015.40 1015.42 1015.21 1014.85 1014.45 1014.13 1013.97 1014.02 1014.25 1014.61 1015.00 1015.34 1015.57 1015.65 1015.62 1015.51 1015.39 1015.31 1015.31 1015.38 1015.49 1015.61 1015.67 1015.65 1015.54 1015.35 1015.11 1014.87 1014.66 1014.50 1014.37 1014.26 1014.16 1014.02
1011.53 1012.10 1012.50 1012.70 1012.70 1012.55 1012.35 1012.21 1012.23 1012.47 1012.94 1013.57 1014.28 1014.94 1015.43 1015.68 1015.66 1015.40 1015.00 1014.58 1014.25 1014.08 1014.13 1014.36 1014.71 1015.08 1015.40 1015.60 1015.66 1015.60 1015.48 1015.35 1015.28 1015.29 1015.38 1015.52 1015.66 1015.74 1015.72 1015.60 1015.39 1015.12 1014.84 1014.58 1014.37 1014.21 1014.08 1013.97 1013.85
1011.57 1012.13 1012.53 1012.74 1012.77 1012.66 1012.51 1012.41 1012.46 1012.71 1013.17 1013.80 1014.48 1015.10 1015.57 1015.80 1015.76 1015.50 1015.11 1014.70 1014.38 1014.22 1014.26 1014.48 1014.82 1015.17 1015.46 1015.64 1015.68 1015.62 1015.49 1015.37 1015.30 1015.33 1015.44 1015.60 1015.75 1015.84 1015.83 1015.70 1015.47 1015.17 1014.85 1014.55 1014.30 1014.10 1013.94 1013.83 1013.73
1011.74 1012.32 1012.76 1013.01 1013.08 1013.01 1012.87 1012.77 1012.78 1012.98 1013.38 1013.92 1014.53 1015.10 1015.54 1015.76 1015.74 1015.52 1015.18 1014.81 1014.53 1014.39 1014.43 1014.64 1014.95 1015.28 1015.55 1015.71 1015.75 1015.68 1015.56 1015.45 1015.41 1015.45 1015.57 1015.74 1015.91 1016.01 1016.00 1015.88 1015.64 1015.32 1014.98 1014.64 1014.35 1014.12 1013.94 1013.82 1013.73
1012.11 1012.77 1013.28 1013.60 1013.71 1013.66 1013.52 1013.36 1013.28 1013.36 1013.61 1014.02 1014.51 1014.99 1015.39 1015.61 1015.64 1015.48 1015.22 1014.93 1014.69 1014.59 1014.64 1014.84 1015.12 1015.42 1015.68 1015.83 1015.87 1015.81 1015.71 1015.62 1015.59 1015.64 1015.77 1015.95 1016.12 1016.23 1016.24 1016.13 1015.90 1015.59 1015.24 1014.89 1014.58 1014.32 1014.13 1014.00 1013.92
1012.73 1013.48 1014.09 1014.50 1014.68 1014.65 1014.47 1014.22 1014.00 1013.90 1013.95 1014.16 1014.49 1014.86 1015.20 1015.42 1015.49 1015.42 1015.25 1015.05 1014.88 1014.82 1014.88 1015.06 1015.32 1015.60 1015.84 1015.99 1016.05 1016.01 1015.93 1015.86 1015.84 1015.90 1016.02 1016.20 1016.37 1016.49 1016.52 1016.44 1016.24 1015.96 1015.62 1015.29 1014.98 1014.72 1014.52 1014.39 1014.30
1013.52 1014.39 1015.12 1015.63 1015.89 1015.88 1015.66 1015.31 1014.93 1014.61 1014.43 1014.42 1014.55 1014.78 1015.03 1015.24 1015.36 1015.37 1015.29 1015.17 1015.07 1015.05 1015.12 1015.29 1015.53 1015.80 1016.03 1016.20 1016.27 1016.27 1016.22 1016.17 1016.16 1016.21 1016.32 1016.47 1016.64 1016.76 1016.81 1016.76 1016.61 1016.37 1016.09 1015.78 1015.50 1015.26 1015.07 1014.93 1014.84
1014.36 1015.36 1016.22 1016.86 1017.20 1017.24 1016.99 1016.54 1015.99 1015.46 1015.04 1014.78 1014.70 1014.77 1014.93 1015.11 1015.25 1015.33 1015.33 1015.29 1015.25 1015.25 1015.33 1015.49 1015.72 1015.98 1016.22 1016.41 1016.53 1016.57 1016.56 1016.53 1016.52 1016.55 1016.64 1016.76 1016.90 1017.02 1017.08 1017.06 1016.96 1016.78 1016.55 1016.31 1016.06 1015.85 1015.68 1015.56 1015.46
1015.13 1016.25 1017.24 1018.01 1018.46 1018.55 1018.30 1017.77 1017.07 1016.34 1015.68 1015.19 1014.90 1014.81 1014.87 1015.01 1015.17 1015.29 1015.35 1015.37 1015.38 1015.40 1015.48 1015.63 1015.85 1016.11 1016.37 1016.60 1016.77 1016.87 1016.91 1016.91 1016.90 1016.92 1016.97 1017.05 1017.16 1017.25 1017.31 1017.32 1017.26 1017.14 1016.97 1016.79 1016.60 1016.43 1016.30 1016.19 1016.10
1015.71 1016.92 1018.05 1018.94 1019.51 1019.67 1019.43 1018.85 1018.04 1017.13 1016.27 1015.57 1015.09 1014.85 1014.81 1014.90 1015.07 1015.22 1015.34 1015.40 1015.43 1015.46 1015.54 1015.67 1015.88 1016.15 1016.45 1016.73 1016.97 1017.14 1017.24 1017.28 1017.29 1017.30 1017.31 1017.35 1017.40 1017.46 1017.51 1017.52 1017.49 1017.42 1017.31 1017.19 1017.06 1016.94 1016.84 1016.77 1016.70
1016.05 1017.35 1018.58 1019.60 1020.26 1020.50 1020.28 1019.66 1018.76 1017.71 1016.68 1015.81 1015.17 1014.81 1014.69 1014.75 1014.92 1015.10 1015.26 1015.36 1015.40 1015.44 1015.50 1015.62 1015.82 1016.10 1016.43 1016.77 1017.09 1017.35 1017.53 1017.63 1017.67 1017.67 1017.66 1017.65 1017.66 1017.68 1017.70 1017.71 1017.69 1017.65 1017.59 1017.51 1017.43 1017.36 1017.31 1017.27 1017.24
1016.21 1017.56 1018.87 1019.97 1020.72 1021.00 1020.80 1020.15 1019.17 1018.01 1016.85 1015.84 1015.08 1014.63 1014.45 1014.50 1014.69 1014.92 1015.11 1015.24 1015.31 1015.34 1015.38 1015.48 1015.67 1015.96 1016.32 1016.72 1017.12 1017.47 1017.74 1017.91 1018.00 1018.03 1018.01 1017.98 1017.95 1017.93 1017.92 1017.92 1017.91 1017.88 1017.85 1017.80 1017.76 1017.74 1017.72 1017.73 1017.73
1016.30 1017.68 1019.03 1020.17 1020.94 1021.24 1021.01 1020.32 1019.26 1017.99 1016.73 1015.62 1014.78 1014.28 1014.09 1014.15 1014.38 1014.66 1014.91 1015.08 1015.17 1015.20 1015.23 1015.30 1015.48 1015.76 1016.14 1016.59 1017.06 1017.49 1017.86 1018.12 1018.28 1018.34 1018.35 1018.32 1018.28 1018.24 1018.22 1018.20 1018.18 1018.17 1018.14 1018.12 1018.11 1018.10 1018.12 1018.16 1018.21
1016.49 1017.86 1019.20 1020.32 1021.06 1021.30 1021.01 1020.23 1019.07 1017.71 1016.36 1015.18 1014.29 1013.77 1013.60 1013.71 1014.01 1014.36 1014.69 1014.92 1015.04 1015.08 1015.09 1015.15 1015.29 1015.55 1015.94 1016.41 1016.93 1017.44 1017.88 1018.23 1018.47 1018.60 1018.66 1018.66 1018.64 1018.61 1018.59 1018.57 1018.56 1018.55 1018.53 1018.51 1018.50 1018.51 1018.55 1018.61 1018.70
1016.89 1018.23 1019.51 1020.54 1021.18 1021.30 1020.89 1019.98 1018.71 1017.25 1015.82 1014.59 1013.68 1013.18 1013.05 1013.23 1013.62 1014.07 1014.48 1014.79 1014.96 1015.03 1015.04 1015.07 1015.17 1015.40 1015.76 1016.23 1016.77 1017.32 1017.83 1018.25 1018.57 1018.78 1018.91 1018.97 1019.00 1019.01 1019.01 1019.02 1019.02 1019.01 1019.00 1018.99 1018.98 1018.99 1019.02 1019.10 1019.21
1017.56 1018.83 1019.99 1020.88 1021.35 1021.30 1020.72 1019.66 1018.26 1016.71 1015.21 1013.94 1013.04 1012.56 1012.50 1012.77 1013.25 1013.81 1014.33 1014.72 1014.96 1015.07 1015.09 1015.10 1015.17 1015.35 1015.67 1016.11 1016.63 1017.19 1017.72 1018.20 1018.58 1018.86 1019.07 1019.20 1019.30 1019.37 1019.43 1019.48 1019.51 1019.53 1019.53 1019.52 1019.50 1019.50 1019.53 1019.60 1019.71
1018.43 1019.59 1020.59 1021.29 1021.55 1021.30 1020.53 1019.31 1017.79 1016.15 1014.61 1013.33 1012.44 1012.01 1012.01 1012.36 1012.94 1013.60 1014.22 1014.71 1015.03 1015.19 1015.24 1015.24 1015.29 1015.43 1015.69 1016.07 1016.54 1017.07 1017.60 1018.09 1018.51 1018.85 1019.12 1019.33 1019.50 1019.65 1019.78 1019.89 1019.97 1020.03 1020.05 1020.05 1020.03 1020.01 1020.03 1020.08 1020.18
1019.32 1020.35 1021.16 1021.64 1021.69 1021.23 1020.29 1018.94 1017.33 1015.65 1014.08 1012.82 1011.97 1011.58 1011.63 1012.05 1012.70 1013.45 1014.15 1014.73 1015.13 1015.35 1015.45 1015.47 1015.51 1015.61 1015.81 1016.13 1016.54 1017.01 1017.49 1017.96 1018.37 1018.74 1019.05 1019.32 1019.57 1019.79 1019.99 1020.17 1020.32 1020.42 1020.48 1020.50 1020.49 1020.46 1020.46 1020.49 1020.57
1020.03 1020.89 1021.51 1021.78 1021.62 1021.00 1019.93 1018.51 1016.88 1015.20 1013.68 1012.46 1011.65 1011.30 1011.39 1011.84 1012.52 1013.31 1014.07 1014.72 1015.19 1015.49 1015.64 1015.71 1015.77 1015.86 1016.02 1016.28 1016.61 1017.01 1017.42 1017.83 1018.22 1018.57 1018.90 1019.20 1019.49 1019.77 1020.04 1020.29 1020.50 1020.66 1020.76 1020.81 1020.82 1020.80 1020.79 1020.81 1020.87
1020.32 1021.02 1021.45 1021.54 1021.24 1020.51 1019.41 1018.00 1016.42 1014.84 1013.41 1012.27 1011.52 1011.20 1011.29 1011.73 1012.40 1013.17 1013.95 1014.62 1015.15 1015.52 1015.75 1015.89 1015.99 1016.10 1016.26 1016.47 1016.75 1017.06 1017.40 1017.74 1018.07 1018.38 1018.68 1018.99 1019.30 1019.62 1019.94 1020.24 1020.50 1020.72 1020.87 1020.97 1021.00 1021.01 1021.00 1021.01 1021.06
1020.07 1020.60 1020.88 1020.85 1020.47 1019.74 1018.69 1017.40 1015.97 1014.55 1013.27 1012.25 1011.57 1011.27 1011.34 1011.71 1012.30 1013.01 1013.74 1014.40 1014.95 1015.38 1015.69 1015.92 1016.09 1016.26 1016.45 1016.66 1016.90 1017.16 1017.43 1017.69 1017.95 1018.20 1018.46 1018.74 1019.05 1019.37 1019.71 1020.05 1020.35 1020.62 1020.82 1020.96 1021.04 1021.08 1021.10 1021.13 1021.18
1019.28 1019.67 1019.85 1019.76 1019.39 1018.74 1017.84 1016.75 1015.56 1014.36 1013.29 1012.41 1011.81 1011.51 1011.52 1011.78 1012.25 1012.83 1013.45 1014.06 1014.60 1015.06 1015.43 1015.75 1016.02 1016.27 1016.52 1016.76 1017.01 1017.25 1017.47 1017.67 1017.87 1018.07 1018.28 1018.52 1018.79 1019.10 1019.44 1019.78 1020.12 1020.41 1020.66 1020.85 1020.98 1021.06 1021.12 1021.17 1021.24
Thickness
5802 5807 5807 5795 5774 5762 5759 5767 5777 5778 5780 5789 5792 5786 5775 5768 5761 5748 5768 5780 5780 5777 5774 5772 5771 5770 5769 5768 5767 5766 5764 5763 5762 5761 5759 5758 5757 5755 5754 5753 5753 5752 5751 5750 5750 5750 5750 5750 5750
5802 5806 5798 5782 5761 5750 5753 5767 5769 5773 5782 5790 5789 5784 5775 5767 5771 5767 5771 5778 5778 5775 5772 5770 5768 5767 5766 5765 5764 5763 5762 5760 5759 5758 5757 5756 5754 5753 5752 5751 5750 5750 5749 5748 5748 5748 5748 5748 5748
5801 5802 5784 5770 5757 5751 5752 5766 5770 5778 5787 5787 5780 5778 5770 5763 5769 5769 5774 5778 5776 5772 5769 5767 5766 5765 5764 5762 5761 5760 5759 5758 5757 5756 5755 5753 5752 5751 5751 5750 5749 5748 5747 5746 5746 5745 5746 5746 5746
5796 5789 5780 5761 5752 5762 5765 5769 5774 5775 5780 5785 5779 5766 5764 5770 5771 5772 5778 5778 5773 5769 5766 5764 5764 5762 5761 5760 5759 5758 5757 5755 5755 5753 5752 5751 5750 5749 5749 5748 5747 5746 5745 5744 5744 5744 5744 5744 5744
5792 5775 5760 5752 5755 5765 5772 5777 5777 5771 5772 5775 5772 5756 5753 5766 5774 5776 5777 5776 5772 5768 5765 5763 5761 5760 5759 5758 5757 5756 5754 5753 5752 5751 5750 5749 5749 5748 5747 5746 5745 5744 5743 5743 5742 5742 5742 5742 5742
5774 5768 5748 5742 5751 5763 5771 5777 5775 5769 5768 5770 5765 5754 5750 5765 5768 5772 5775 5774 5772 5768 5765 5762 5760 5758 5757 5756 5755 5754 5753 5751 5751 5750 5749 5748 5747 5747 5746 5745 5744 5743 5742 5741 5741 5740 5740 5740 5741
5763 5757 5747 5747 5748 5754 5765 5775 5770 5766 5764 5767 5769 5753 5749 5758 5766 5771 5772 5771 5770 5768 5765 5762 5759 5757 5755 5754 5753 5752 5751 5750 5750 5749 5748 5747 5747 5746 5744 5743 5742 5741 5740 5740 5739 5739 5739 5739 5739
5770 5758 5747 5748 5745 5747 5765 5771 5770 5766 5762 5774 5773 5752 5745 5756 5766 5769 5769 5768 5768 5767 5766 5764 5761 5759 5756 5754 5753 5752 5751 5750 5749 5749 5748 5747 5746 5745 5744 5742 5741 5740 5739 5739 5739 5738 5738 5738 5738
5772 5747 5737 5743 5745 5750 5764 5763 5767 5772 5767 5768 5769 5762 5759 5764 5766 5764 5762 5762 5763 5764 5765 5764 5763 5761 5759 5756 5754 5752 5751 5750 5749 5749 5748 5748 5747 5746 5744 5742 5741 5740 5739 5739 5739 5738 5738 5738 5737
5759 5736 5739 5752 5758 5758 5761 5762 5763 5761 5755 5753 5754 5758 5762 5763 5762 5759 5758 5757 5758 5760 5763 5764 5763 5761 5759 5758 5754 5753 5752 5751 5750 5750 5749 5748 5748 5746 5744 5742 5741 5740 5739 5738 5738 5738 5738 5738 5737
5756 5743 5748 5756 5763 5764 5760 5759 5763 5755 5745 5748 5748 5751 5757 5759 5760 5759 5757 5757 5758 5760 5762 5764 5764 5762 5758 5756 5754 5753 5752 5751 5750 5749 5748 5747 5746 5745 5743 5741 5740 5740 5739 5738 5739 5739 5738 5739 5738
5750 5750 5754 5754 5761 5762 5757 5756 5754 5752 5751 5757 5757 5757 5758 5758 5758 5758 5757 5757 5758 5758 5760 5763 5763 5760 5757 5755 5753 5752 5750 5749 5748 5747 5747 5746 5744 5744 5743 5741 5740 5739 5738 5737 5738 5738 5738 5738 5737
5744 5745 5752 5755 5756 5757 5755 5750 5749 5749 5756 5759 5759 5757 5757 5757 5758 5760 5760 5758 5757 5755 5757 5759 5760 5758 5755 5753 5752 5750 5748 5748 5746 5745 5745 5744 5742 5742 5740 5739 5738 5737 5736 5736 5736 5735 5735 5735 5734
5742 5744 5746 5749 5750 5751 5746 5745 5745 5744 5754 5754 5753 5753 5756 5755 5757 5757 5757 5755 5755 5754 5755 5756 5756 5756 5754 5752 5751 5749 5748 5746 5744 5743 5743 5742 5741 5740 5738 5737 5735 5735 5734 5734 5734 5734 5734 5733 5732
5745 5737 5735 5739 5743 5744 5743 5730 5735 5745 5750 5748 5749 5751 5751 5754 5755 5754 5755 5755 5755 5754 5754 5753 5754 5754 5752 5750 5749 5747 5746 5744 5743 5741 5741 5740 5739 5738 5736 5734 5733 5733 5733 5732 5732 5732 5731 5731 5729
5736 5726 5716 5728 5737 5739 5732 5712 5731 5745 5745 5742 5745 5746 5746 5749 5753 5754 5756 5756 5755 5754 5752 5752 5754 5751 5749 5747 5746 5745 5743 5742 5740 5738 5738 5738 5737 5735 5733 5732 5731 5731 5730 5730 5729 5727 5726 5726 5725
5718 5709 5710 5718 5732 5733 5726 5715 5729 5742 5742 5739 5740 5742 5744 5745 5749 5752 5754 5754 5754 5753 5751 5750 5750 5749 5747 5746 5744 5743 5741 5739 5737 5735 5734 5734 5733 5733 5731 5730 5729 5729 5727 5726 5726 5724 5723 5722 5722
5707 5708 5708 5711 5724 5727 5720 5719 5727 5738 5739 5737 5739 5741 5743 5743 5745 5750 5751 5752 5753 5752 5750 5748 5747 5747 5745 5744 5742 5739 5738 5737 5735 5733 5731 5731 5730 5730 5729 5728 5727 5726 5724 5723 5722 5721 5721 5720 5720
5719 5714 5706 5712 5725 5721 5716 5717 5724 5733 5734 5734 5736 5739 5741 5743 5746 5748 5749 5750 5750 5750 5748 5746 5745 5744 5742 5739 5737 5734 5732 5732 5731 5730 5729 5728 5727 5727 5727 5726 5725 5723 5721 5720 5719 5718 5717 5717 5719
5719 5709 5707 5712 5721 5719 5713 5714 5725 5730 5732 5735 5736 5738 5740 5741 5742 5743 5745 5747 5747 5746 5745 5744 5743 5742 5740 5737 5737 5735 5733 5731 5729 5728 5727 5726 5725 5725 5725 5724 5723 5721 5719 5717 5716 5715 5713 5714 5716
5717 5713 5711 5709 5715 5718 5712 5707 5718 5728 5733 5735 5738 5740 5742 5742 5741 5741 5743 5743 5744 5743 5743 5743 5742 5740 5739 5737 5735 5734 5731 5729 5726 5724 5723 5723 5722 5722 5722 5722 5721 5719 5717 5715 5714 5712 5710 5708 5711
5710 5724 5721 5717 5708 5702 5711 5693 5711 5723 5725 5729 5733 5738 5741 5743 5743 5741 5741 5741 5741 5741 5743 5742 5741 5739 5738 5736 5733 5729 5724 5722 5722 5722 5722 5721 5720 5719 5719 5719 5718 5717 5715 5713 5712 5710 5709 5707 5704
5721 5730 5725 5720 5713 5707 5713 5701 5710 5726 5721 5727 5734 5739 5742 5743 5743 5741 5742 5741 5741 5741 5740 5740 5738 5736 5734 5733 5730 5727 5724 5723 5722 5721 5720 5719 5718 5717 5717 5717 5716 5714 5713 5712 5710 5708 5707 5705 5702
5731 5726 5722 5720 5711 5695 5713 5708 5709 5726 5731 5735 5739 5742 5744 5745 5744 5743 5743 5742 5739 5739 5737 5736 5733 5731 5730 5729 5728 5725 5722 5721 5718 5717 5716 5715 5715 5715 5715 5714 5713 5712 5711 5710 5709 5707 5705 5703 5702
5727 5711 5694 5689 5688 5697 5722 5716 5720 5742 5749 5747 5744 5744 5746 5746 5744 5741 5739 5737 5735 5734 5733 5731 5729 5727 5727 5727 5725 5723 5721 5719 5717 5715 5714 5713 5712 5712 5713 5712 5711 5710 5709 5708 5707 5705 5703 5702 5699
5723 5716 5692 5681 5686 5702 5721 5718 5735 5755 5756 5756 5753 5751 5749 5747 5745 5742 5739 5736 5733 5732 5730 5729 5726 5724 5725 5724 5723 5722 5720 5717 5715 5714 5713 5713 5711 5710 5711 5711 5710 5708 5708 5707 5705 5703 5702 5700 5698
5722 5720 5722 5706 5707 5704 5716 5729 5739 5753 5751 5752 5752 5750 5748 5747 5745 5742 5740 5737 5733 5730 5729 5728 5725 5723 5723 5722 5721 5719 5717 5715 5713 5713 5712 5711 5711 5710 5709 5709 5708 5707 5706 5704 5703 5700 5699 5697 5696
5737 5732 5723 5712 5699 5696 5714 5723 5726 5736 5741 5746 5748 5747 5748 5748 5746 5743 5740 5737 5733 5731 5729 5728 5726 5723 5722 5721 5720 5717 5715 5713 5712 5710 5708 5708 5708 5708 5708 5708 5707 5705 5704 5703 5700 5698 5697 5695 5693
5731 5731 5730 5725 5720 5702 5699 5716 5753 5748 5749 5748 5749 5750 5750 5748 5746 5743 5740 5737 5734 5732 5729 5727 5726 5723 5721 5720 5718 5715 5713 5711 5709 5707 5706 5706 5706 5706 5706 5705 5705 5703 5702 5700 5698 5696 5694 5692 5691
5742 5738 5734 5715 5716 5723 5715 5720 5764 5761 5760 5757 5754 5754 5754 5751 5748 5745 5741 5737 5733 5731 5729 5727 5725 5723 5721 5720 5717 5714 5712 5709 5707 5705 5704 5705 5704 5705 5704 5704 5702 5701 5699 5697 5695 5693 5691 5689 5687